Regional Weather Roundup
Issued by NWS

Home | Current Version | Previous Version | Graphics & Text | Print | Product List | Glossary On
Versions: 1 2 3 4 5 6 7 8 9 10 11 12 13 14 15 16 17 18 19 20 21 22 23 24 25 26 27 28 29 30 31 32 33 34 35 36 37 38 39 40 41 42 43 44 45 46 47 48 49 50
071
ASUS43 KMPX 251301
RWRMN
WEATHER ROUNDUP FOR MINNESOTA
NATIONAL WEATHER SERVICE TWIN CITIES/CHANHASSEN MN
800 AM CDT MON SEP 25 2017


NOTE: "FAIR" INDICATES FEW OR NO CLOUDS BELOW 12,000 FEET WITH NO
SIGNIFICANT WEATHER AND/OR OBSTRUCTIONS TO VISIBILITY. N/A MEANS
CURRENT SKY AND/OR WEATHER CONDITIONS ARE NOT AVAILABLE.

MNZ060>063-068>070-251400-
   Twin Cities Metro

CITY           SKY/WX    TMP DP  RH WIND       PRES   REMARKS
TWIN CITIES    CLOUDY    60  59  96 N8        29.99S
ST PAUL        CLOUDY    60  60 100 N9        29.99S
CRYSTAL        CLOUDY    57  53  86 N6        29.99S
BLAINE         CLOUDY    59  59 100 NW6       30.00R
LAKEVILLE      CLOUDY    59  59 100 NW5       29.99S
EDEN PRAIRIE   CLOUDY    59  56  89 N7        29.99R
SOUTH ST PAUL  CLOUDY    61  61 100 N7        29.98S
LAKE ELMO      CLOUDY    61  59  94 NW10G16   30.00R
$$
MNZ001>005-007-008-013>017-022>024-027-028-251400-
   Northwest Minnesota

CITY           SKY/WX    TMP DP  RH WIND       PRES   REMARKS
BEMIDJI        CLOUDY    47  47  99 NW8       30.06R FOG
HALLOCK        CLOUDY    48  45  87 N8        30.12S
ROSEAU         CLOUDY    46  41  81 NW9       30.10R
WARROAD        CLOUDY    45  41  87 NW8       30.10R
THIEF RVR FALL CLOUDY    46  46 100 N9        30.10R
CROOKSTON      CLOUDY    48  46  93 N14       30.11R
FOSSTON        CLOUDY    45  45 100 N9        30.09R
DETROIT LAKES  FOG       46  46 100 NW9       30.09R VSB 1
MOORHEAD       CLOUDY    48  46  93 N9        30.10S FOG
PARK RAPIDS    CLOUDY    50  47  89 NW7       30.06R
MAHNOMEN       CLOUDY    47  46  97 N8        30.08S FOG
$$
MNZ006-009>011-018-025>026-251400-
   North Central Minnesota

CITY           SKY/WX    TMP DP  RH WIND       PRES   REMARKS
BAUDETTE       CLOUDY    49  49 100 NW13G20   30.06R
FLAG ISLAND    CLOUDY    48  46  93 NW8       30.07R FOG
INTL FALLS     CLOUDY    50  48  93 NW6       30.03R
WASKISH        CLOUDY    48  46  93 NW8       30.06R
BIG FORK       CLOUDY    48  48 100 CALM      30.04R FOG
LONGVILLE      CLOUDY    50  48  93 CALM      30.05R
GRAND RAPIDS   CLOUDY    50  48  93 NW9       30.06R
CRANE LAKE     CLOUDY    48  48 100 CALM      30.02S FOG
ORR            CLOUDY    48  46  93 W5        29.99S FOG
WALKER         PTSUNNY   48  47  95 NW5       30.06R
$$
MNZ012-019>021-037-251400-
   Northeast Minnesota

CITY           SKY/WX    TMP DP  RH WIND       PRES   REMARKS
DULUTH         CLOUDY    53  52  96 NW9       29.99R
ELY            CLOUDY    52  50  93 W6        30.00R
HIBBING        CLOUDY    50  48  93 NW9       30.01S
EVELETH        CLOUDY    53  51  95 CALM      30.02R
DULUTH HARBOR  CLOUDY    61  55  82 NW9       30.00R
SILVER BAY     CLOUDY    59  55  88 N6        29.94R
GRAND MARAIS     N/A     64  59  83 MISG      29.91R
$$
MNZ029>031-032-039>041-046>048-054>057-064-251400-
   West Central Minnesota

CITY           SKY/WX    TMP DP  RH WIND       PRES   REMARKS
FERGUS FALLS   CLOUDY    48  48 100 N7        30.09R
WHEATON        CLOUDY    48  46  93 NW8       30.09F
MORRIS         MOCLDY    52  48  87 N10       30.06S
ALEXANDRIA     CLOUDY    50  49  96 NW7       30.06S
ELBOW LAKE     CLOUDY    49  48  94 W12       30.08S
WADENA         CLOUDY    48  48 100 N6        30.06R
GLENWOOD       CLOUDY    52  50  93 NW9       30.05R
APPLETON       LGT RAIN  52  48  87 N13       30.04F
BENSON         RAIN      52  48  87 N8        30.07S
ORTONVILLE     DRIZZLE   50  46  87 N10       30.06F
MADISON        DRIZZLE   54  54 100 N9        30.04F
WILLMAR        RAIN      54  52  94 N10       30.04F
$$
MNZ033>034-036-042>043-049>051-058-059-251400-
   Central Minnesota

CITY           SKY/WX    TMP DP  RH WIND       PRES   REMARKS
ST CLOUD       LGT RAIN  52  52 100 N7        30.02R
SAUK CENTRE    RAIN      49  48  95 NW9       30.04S
PAYNESVILLE    CLOUDY    51  50  96 N6        30.05R
AITKIN         LGT RAIN  50  48  93 N7        30.02R
PINE RIVER     CLOUDY    48  46  93 NW7       30.08S
BRAINERD       LGT RAIN  50  49  96 N9        30.04R
STAPLES        LGT RAIN  48  48 100 NW8       30.05S
LITTLE FALLS   LGT RAIN  50  45  81 N6        30.03R
LITCHFIELD     LGT RAIN  54  54 100 N9        30.03F
BUFFALO        DRIZZLE   55  52  90 N5        30.02S
MAPLE LAKE     DRIZZLE   55  53  96 NW6       30.03R
HUTCHINSON     LGT RAIN  54  53  97 NW8       30.04S
$$
MNZ037-044-045-052-053-251400-
   East Central Minnesota

CITY           SKY/WX    TMP DP  RH WIND       PRES   REMARKS
PRINCETON      DRIZZLE   55  54  94 W6        30.02S
MORA           LGT RAIN  54  52  94 N3        30.02S
RUSH CITY      CLOUDY    57  55  94 NW5       30.00R
MOOSE LAKE     RAIN      54  50  87 N5        29.99S
HINCKLEY       LGT RAIN  55  54  94 NW6       30.00S
CLOQUET        LGT RAIN  54  50  87 NW8       30.01R
MCGREGOR       CLOUDY    52  50  93 NW9       30.03S
$$
MNZ071>073-080-081-089-090-097-098-251400-
   Southwest Minnesota

CITY           SKY/WX    TMP DP  RH WIND       PRES   REMARKS
MONTEVIDEO     LGT RAIN  52  50  93 N10       30.04F
GRANITE FALLS  DRIZZLE   52  51  95 NW9       30.06S
CANBY          LGT RAIN  51  49  94 N6        30.05F
MARSHALL       LGT RAIN  50  49  96 N9        30.05
REDWOOD FALLS  LGT RAIN  52  50  93 NW9       30.04R
OLIVIA         DRIZZLE   52  50  93 N6        30.04R
PIPESTONE      LGT RAIN  52  48  87 E7        30.02S
WORTHINGTON    LGT RAIN  52  51  97 N12G17    30.02F FOG
JACKSON        LGT SNOW  52  52 100 CALM      30.02R
TRACY          DRIZZLE   51  51  99 N9        30.05S
SLAYTON        DRIZZLE   50  44  80 N12       30.05S
$$
MNZ065>067-074>077-082>085-091>093-251400-
   South Central Minnesota

CITY           SKY/WX    TMP DP  RH WIND       PRES   REMARKS
MANKATO        LGT RAIN  56  55  97 NW9       30.02R
NEW ULM        CLOUDY    54  54 100 NW8       30.03R
ST JAMES       CLOUDY    54  54 100 NW3       30.03S
FAIRMONT       LGT RAIN  54  53  97 N9        30.01S
FARIBAULT      CLOUDY    61  59  94 N5        29.99S
OWATONNA       FOG       61  61 100 NW8       30.00R VSB<1/4
WASECA         CLOUDY    57  55  94 NW3       30.02R
ALBERT LEA     CLOUDY    64  63  94 NW5       29.99S FOG
$$
MNZ078>079-086>088-094>096-251400-
   Southeast Minnesota

CITY           SKY/WX    TMP DP  RH WIND       PRES   REMARKS
ROCHESTER      PTCLDY    66  65  96 NE8       29.98F FOG
RED WING       CLOUDY    70  64  83 CALM      29.96R
STANTON        CLOUDY    64  61  92 W7        29.98R
DODGE CENTER   FOG       64  63  94 NW6       29.99R VSB 1/4
WINONA         PTSUNNY   64  63  94 CALM      29.96R
AUSTIN         CLOUDY    66  63  88 NW8       29.98S FOG
PRESTON        PTCLDY    62  59  92 NW7       29.99R FOG
$$
ABBREVIATIONS USED IN REMARKS
   TC - TEMPERATURES IN CELSIUS
  WCI - WIND CHILL INDEX
   HX - HEAT INDEX
  VSB - VISIBILITY
$$




USA.gov is the U.S. government's official web portal to all federal, state and local government web resources and services.